Temp
72 71 72 71 71 70 70 70 70 70 70 70 70 70 70 69 69 68 68 68 67 67 68 68 67 68 68 68 69 68 67 65 62 62 63 65 65 65 65 64 65 63 65
73 72 72 72 72 70 70 71 70 70 70 71 70 70 70 70 69 68 68 70 67 67 67 68 67 69 68 67 67 67 67 66 63 61 63 62 63 65 63 61 64 63 63
73 72 72 71 71 70 70 70 70 70 70 70 70 69 69 69 69 69 70 68 69 68 67 67 68 68 66 66 66 66 65 66 63 62 60 61 62 64 62 62 59 58 62
73 73 72 71 72 72 71 71 70 70 70 70 69 71 70 70 70 71 70 68 68 69 69 68 67 67 66 66 66 65 65 64 63 62 61 61 61 62 64 61 59 59 58
75 73 73 73 73 72 71 70 71 70 71 70 70 73 74 73 71 71 71 68 67 67 68 68 67 67 68 66 65 65 64 63 62 61 60 60 60 61 61 61 59 57 56
76 75 75 73 72 72 70 70 71 70 70 69 71 72 67 69 64 65 67 67 66 66 65 65 65 67 65 65 65 66 65 63 61 60 59 60 61 62 61 62 59 57 55
77 77 75 75 72 72 72 71 71 69 68 68 67 67 67 66 62 63 65 64 65 64 65 64 65 68 64 63 63 64 65 65 65 64 61 61 60 62 63 62 61 59 57
75 75 74 74 70 69 69 67 70 69 68 67 67 67 66 65 60 60 63 62 63 67 67 67 65 64 63 63 62 62 63 65 65 66 63 60 60 65 65 65 62 61 61
74 73 73 71 64 64 64 63 65 66 67 68 68 67 66 64 58 58 60 60 61 65 66 67 67 64 61 60 64 61 61 60 59 61 62 60 60 60 63 62 60 59 58
68 72 69 68 65 63 59 62 62 62 61 68 68 68 65 63 54 55 59 59 59 59 61 63 62 63 58 59 63 61 59 60 61 60 61 60 59 59 61 63 61 61 60
66 65 64 66 67 64 64 63 61 61 61 67 67 66 66 64 58 52 54 59 59 59 60 61 62 57 54 55 56 61 60 60 60 60 59 59 60 59 59 60 60 62 61
63 62 62 63 65 64 63 63 61 62 61 66 66 66 66 64 58 52 51 56 59 60 59 60 60 53 51 51 55 53 54 56 59 59 59 59 59 59 60 61 61 61 61
60 60 59 61 63 63 62 61 61 61 64 66 65 65 64 63 60 52 50 51 54 59 60 57 53 50 51 52 54 54 54 56 55 55 57 57 59 61 61 60 60 60 60
59 58 59 59 59 59 61 60 60 61 61 65 65 64 64 64 61 58 56 54 54 57 57 57 56 55 55 56 56 54 54 54 55 54 53 55 56 57 58 60 59 60 60
59 58 59 59 62 59 59 58 60 63 65 65 66 65 64 63 62 56 56 58 58 55 56 58 56 55 55 55 56 57 55 54 54 53 54 57 59 59 57 56 57 56 59
62 62 61 63 62 63 61 59 52 50 51 51 52 60 60 55 51 51 46 47 47 48 58 59 59 59 59 59 60 60 60 59 56 55 55 55 56 57 57 57 58 57 56
56 58 58 60 60 61 61 60 57 54 48 46 47 48 50 49 45 43 43 44 45 50 56 59 59 58 56 58 59 60 59 59 60 59 58 58 58 58 56 57 57 57 56
58 54 57 57 59 59 61 62 60 59 57 55 44 44 42 42 42 42 43 46 53 53 56 56 56 56 58 56 58 58 57 57 56 56 55 54 54 55 55 55 55 54 54
57 57 58 58 58 57 60 61 61 60 58 53 50 47 45 43 42 42 42 55 56 54 55 57 57 57 57 56 55 55 54 53 55 56 55 54 55 54 53 54 54 50 49
58 57 56 58 58 59 58 59 60 60 58 57 57 54 51 50 56 56 55 58 58 58 58 58 56 57 58 56 55 54 53 53 53 55 56 56 55 55 54 54 54 52 52
55 58 58 57 58 59 59 58 58 60 60 59 59 57 49 58 58 58 58 57 58 57 57 57 55 54 56 54 54 50 51 52 49 48 49 50 51 50 52 53 53 54 53
54 54 56 56 59 58 58 59 59 59 60 59 58 55 49 58 57 58 59 58 59 60 59 56 54 51 50 50 49 48 47 47 48 46 47 48 48 48 48 48 47 48 49
54 55 55 55 56 56 59 58 58 59 59 59 59 57 60 58 58 58 58 58 57 56 55 55 53 50 49 47 46 45 43 42 43 44 45 46 46 46 47 47 48 46 46
54 54 55 54 54 55 56 54 54 53 58 59 59 60 60 60 60 59 59 57 57 55 54 53 51 49 46 44 41 40 39 38 40 40 42 43 44 45 46 46 47 49 49
53 54 58 54 54 54 56 57 57 60 58 59 59 59 58 58 57 57 56 54 54 52 51 49 47 45 43 42 40 38 34 31 37 36 39 41 43 45 45 45 45 44 43
58 58 58 59 59 58 57 58 59 59 58 58 58 57 55 55 52 52 52 52 50 49 47 45 44 43 41 40 40 36 33 32 35 33 40 42 42 41 41 42 43 42 41
MSLP
1007.32 1007.89 1008.51 1008.77 1009.18 1009.46 1009.70 1009.97 1010.27 1010.40 1010.45 1010.65 1010.86 1011.06 1011.35 1011.67 1011.68 1011.77 1011.94 1012.07 1012.13 1012.22 1012.21 1012.29 1012.21 1012.14 1012.24 1012.37 1012.32 1012.55 1012.97 1013.38 1014.15 1015.13 1015.38 1015.41 1015.65 1015.78 1016.09 1016.38 1016.65 1016.66 1016.80
1006.80 1007.71 1008.49 1008.77 1008.98 1009.36 1009.41 1009.44 1009.57 1009.80 1010.07 1010.21 1010.52 1010.55 1010.70 1010.93 1011.23 1011.38 1011.53 1011.63 1011.99 1012.10 1011.90 1011.93 1011.98 1011.92 1012.08 1012.06 1012.14 1012.33 1012.62 1012.93 1013.56 1014.50 1015.02 1015.33 1015.56 1015.86 1016.22 1016.72 1016.75 1017.09 1017.17
1007.14 1007.66 1007.97 1008.40 1008.56 1008.94 1009.21 1009.54 1009.73 1010.01 1010.37 1010.53 1010.67 1010.76 1010.73 1010.73 1010.78 1010.88 1011.00 1011.14 1011.40 1011.62 1011.69 1011.82 1011.78 1011.83 1011.93 1011.99 1012.00 1012.06 1012.22 1012.61 1012.99 1013.68 1014.50 1015.05 1015.32 1015.78 1016.47 1016.96 1017.23 1017.49 1017.53
1006.45 1007.01 1007.52 1007.96 1008.21 1008.51 1008.69 1009.25 1009.88 1010.07 1010.26 1010.69 1010.90 1010.95 1011.03 1011.05 1011.01 1010.80 1010.69 1010.83 1010.90 1011.24 1011.35 1011.58 1011.53 1011.58 1011.81 1011.83 1011.87 1011.82 1012.02 1012.63 1013.04 1013.56 1013.94 1014.52 1014.47 1015.59 1016.05 1016.58 1017.32 1017.77 1017.90
1006.04 1006.20 1006.64 1007.29 1007.76 1008.25 1008.59 1008.80 1009.09 1009.44 1009.72 1009.91 1010.13 1010.45 1010.95 1011.09 1011.08 1010.99 1011.10 1010.95 1010.91 1011.02 1011.16 1011.40 1011.44 1011.66 1011.70 1011.66 1011.83 1012.08 1012.07 1012.28 1012.95 1013.76 1014.24 1014.68 1014.76 1015.28 1015.64 1016.17 1016.99 1017.52 1017.93
1005.59 1005.65 1006.29 1007.17 1007.95 1008.42 1008.44 1008.34 1008.69 1009.40 1009.67 1009.55 1009.64 1009.98 1010.40 1010.75 1010.95 1011.28 1011.33 1011.39 1011.05 1010.99 1011.25 1011.54 1011.65 1011.58 1011.71 1011.89 1011.73 1011.85 1011.89 1012.14 1012.71 1013.35 1014.10 1014.45 1014.75 1014.86 1015.35 1015.91 1016.55 1017.35 1017.85
1005.32 1005.52 1005.63 1006.26 1006.71 1007.35 1007.81 1008.69 1008.49 1008.42 1008.93 1009.88 1010.03 1009.84 1009.88 1010.14 1010.59 1011.12 1011.68 1011.95 1011.62 1011.11 1011.02 1011.37 1011.77 1011.90 1011.79 1011.91 1011.88 1011.94 1011.94 1012.09 1012.19 1012.52 1013.30 1013.86 1014.38 1014.59 1014.97 1015.51 1015.80 1016.16 1016.57
1004.72 1005.37 1005.16 1006.10 1007.38 1008.18 1009.23 1010.82 1009.90 1008.64 1008.30 1008.64 1009.48 1009.74 1009.56 1009.85 1010.21 1010.50 1011.15 1011.68 1011.72 1011.55 1011.16 1011.13 1011.59 1011.88 1012.15 1012.14 1012.10 1012.16 1012.16 1012.09 1012.22 1012.40 1012.69 1013.04 1013.52 1013.99 1014.18 1014.44 1015.09 1015.77 1016.15
1004.99 1004.89 1004.71 1006.40 1007.24 1007.90 1008.90 1009.70 1009.41 1011.11 1009.75 1008.30 1008.78 1009.42 1009.52 1009.51 1009.85 1010.32 1011.10 1011.74 1011.85 1011.66 1011.41 1011.07 1011.51 1011.77 1011.93 1012.25 1012.36 1012.21 1012.40 1012.48 1012.26 1012.20 1012.50 1012.82 1013.05 1013.40 1013.75 1014.46 1014.99 1015.54 1015.78
1004.94 1004.76 1005.23 1006.17 1006.40 1005.17 1007.72 1009.19 1010.01 1009.18 1010.78 1008.51 1008.41 1008.88 1009.08 1009.26 1009.39 1009.91 1010.57 1011.46 1012.28 1012.10 1011.54 1011.33 1011.64 1012.07 1012.08 1012.11 1012.31 1012.55 1012.67 1012.58 1012.56 1012.65 1012.80 1013.05 1013.25 1013.66 1014.04 1014.16 1014.60 1014.86 1015.23
1005.30 1004.90 1005.66 1005.87 1005.40 1004.93 1005.19 1006.36 1007.41 1006.92 1007.43 1008.00 1007.70 1007.97 1008.46 1008.81 1008.98 1009.51 1010.00 1010.91 1011.81 1011.84 1011.86 1011.54 1011.82 1012.27 1012.50 1012.50 1012.32 1012.36 1012.46 1012.57 1012.59 1012.77 1012.92 1013.09 1013.19 1013.50 1013.90 1014.05 1014.20 1014.55 1014.73
1005.48 1005.29 1005.30 1005.01 1004.76 1004.35 1004.86 1005.14 1005.07 1003.95 1004.65 1005.41 1006.77 1007.40 1007.68 1008.37 1008.55 1009.26 1009.71 1010.47 1011.02 1011.35 1011.38 1011.66 1011.67 1012.36 1012.76 1012.85 1012.83 1012.85 1012.84 1012.84 1012.64 1012.96 1013.17 1013.27 1013.32 1013.34 1013.26 1013.25 1013.43 1013.87 1014.20
1005.97 1005.71 1005.25 1005.08 1005.15 1005.27 1005.26 1005.08 1005.16 1005.60 1006.11 1005.47 1005.80 1006.77 1007.30 1007.93 1008.37 1008.96 1009.95 1010.29 1010.86 1011.21 1011.24 1011.52 1011.66 1012.05 1012.78 1012.94 1012.87 1012.91 1012.97 1013.25 1013.56 1013.39 1013.22 1013.15 1012.86 1012.81 1013.07 1013.20 1013.20 1013.36 1013.58
1005.63 1005.37 1005.10 1005.27 1005.30 1005.11 1005.09 1005.11 1005.61 1005.74 1005.67 1006.18 1005.67 1006.13 1007.03 1007.53 1008.12 1009.07 1009.85 1010.30 1010.88 1011.17 1011.51 1011.66 1012.01 1012.24 1012.40 1013.02 1013.07 1013.06 1013.20 1013.41 1013.52 1013.43 1013.46 1013.41 1012.90 1012.63 1012.77 1012.85 1013.10 1013.32 1013.71
1005.63 1005.81 1005.84 1005.80 1005.41 1005.40 1005.46 1005.86 1005.83 1005.55 1005.42 1003.88 1004.80 1005.31 1006.44 1007.39 1007.84 1008.30 1009.19 1009.97 1010.41 1011.10 1011.28 1011.67 1012.29 1012.52 1012.79 1012.98 1013.11 1012.94 1012.77 1013.01 1013.29 1013.39 1013.50 1013.35 1013.16 1012.90 1012.65 1012.70 1012.89 1013.14 1013.36
1006.00 1005.88 1005.80 1005.41 1005.19 1005.06 1005.24 1005.40 1005.96 1006.08 1005.73 1005.32 1004.66 1004.98 1006.18 1006.73 1007.58 1008.68 1009.12 1009.75 1010.46 1010.90 1011.09 1011.37 1011.84 1012.20 1012.52 1012.91 1012.77 1012.74 1012.69 1012.68 1013.00 1013.08 1013.15 1013.15 1013.02 1013.03 1012.91 1012.77 1012.84 1012.93 1013.21
1007.46 1006.87 1006.02 1005.38 1005.47 1004.95 1005.11 1005.88 1006.37 1006.55 1006.22 1005.96 1005.94 1006.51 1006.44 1007.37 1008.11 1008.98 1009.52 1010.04 1010.63 1010.80 1011.00 1011.26 1011.65 1011.86 1012.37 1012.64 1012.75 1012.72 1012.76 1012.48 1012.66 1013.02 1013.08 1013.23 1013.36 1013.11 1013.17 1013.02 1012.94 1013.04 1013.25
1008.22 1007.70 1007.00 1006.71 1005.74 1005.33 1005.18 1005.40 1005.80 1006.33 1006.62 1006.93 1007.70 1007.82 1008.21 1008.61 1009.02 1009.64 1010.11 1010.62 1010.96 1010.92 1010.84 1011.45 1011.54 1011.83 1012.36 1012.83 1012.87 1013.00 1013.09 1012.97 1013.01 1013.39 1013.66 1013.71 1013.68 1013.44 1013.53 1013.19 1013.10 1013.25 1013.55
1008.22 1008.01 1007.61 1006.86 1006.41 1006.11 1005.79 1005.65 1005.43 1006.15 1007.16 1007.85 1008.26 1009.25 1009.31 1010.12 1010.15 1010.42 1010.91 1010.11 1010.27 1010.59 1010.99 1011.41 1011.36 1011.75 1012.38 1012.77 1012.91 1013.13 1013.41 1013.36 1013.61 1013.71 1013.66 1013.77 1013.85 1013.80 1013.74 1013.62 1013.56 1013.58 1013.72
1008.04 1007.73 1007.36 1007.04 1006.47 1006.08 1005.97 1006.04 1005.92 1006.07 1007.09 1006.97 1008.73 1009.51 1009.64 1010.15 1010.36 1010.36 1010.08 1009.85 1009.94 1010.43 1010.87 1011.20 1011.75 1012.08 1012.50 1012.89 1013.12 1013.38 1013.53 1013.64 1013.88 1013.97 1013.88 1013.84 1013.93 1014.08 1014.05 1013.78 1013.70 1013.75 1013.60
1008.13 1007.68 1007.35 1007.12 1006.97 1006.59 1006.50 1006.35 1006.37 1006.50 1006.83 1007.79 1008.46 1009.02 1009.13 1009.57 1010.02 1009.86 1009.88 1010.12 1010.14 1010.56 1010.95 1011.52 1012.39 1012.85 1013.07 1013.34 1013.78 1014.06 1014.09 1014.42 1014.57 1014.51 1014.46 1014.51 1014.52 1014.47 1014.39 1014.01 1014.01 1013.86 1013.72
1008.27 1007.68 1007.45 1007.02 1006.71 1006.63 1006.75 1007.05 1006.94 1006.87 1007.28 1007.60 1008.55 1009.26 1009.21 1009.54 1010.00 1010.37 1010.57 1010.57 1010.75 1011.12 1011.73 1012.34 1013.01 1013.73 1013.82 1014.02 1014.35 1014.55 1014.86 1015.20 1015.38 1015.05 1014.83 1014.94 1014.74 1014.76 1014.64 1014.47 1014.36 1014.35 1014.41
1008.12 1007.60 1007.11 1006.86 1006.40 1006.09 1006.37 1006.62 1006.74 1007.08 1007.41 1007.80 1008.56 1009.12 1009.50 1010.06 1010.50 1010.72 1010.86 1011.25 1011.55 1012.00 1012.74 1013.10 1013.72 1014.24 1014.56 1014.77 1014.75 1014.93 1015.40 1015.76 1015.87 1015.64 1015.40 1015.35 1015.16 1015.12 1014.86 1014.52 1014.33 1014.51 1014.37
1008.04 1007.58 1007.41 1007.32 1006.91 1006.96 1007.21 1007.52 1007.57 1007.47 1007.74 1008.19 1009.15 1009.65 1009.94 1010.45 1010.62 1010.87 1011.40 1012.01 1012.43 1012.94 1013.29 1013.70 1014.06 1014.49 1015.00 1015.24 1015.40 1015.56 1015.83 1016.11 1016.09 1015.84 1015.44 1015.44 1015.47 1014.92 1014.78 1014.64 1014.62 1014.38 1014.25
1008.45 1007.90 1007.58 1007.69 1007.86 1008.22 1008.20 1008.10 1008.40 1008.59 1008.97 1009.11 1009.86 1010.22 1010.50 1010.85 1011.24 1011.66 1011.91 1012.46 1012.85 1013.44 1013.96 1014.14 1014.54 1014.91 1015.21 1015.44 1015.64 1015.95 1016.11 1016.27 1015.89 1015.97 1015.67 1015.55 1015.37 1015.10 1014.86 1014.82 1014.67 1014.53 1014.38
1008.79 1008.43 1008.33 1008.27 1008.34 1008.64 1008.68 1008.60 1008.79 1009.04 1009.29 1009.90 1010.39 1010.80 1010.99 1011.40 1011.66 1011.97 1012.35 1012.57 1013.42 1014.07 1014.56 1014.88 1015.25 1015.58 1015.79 1016.08 1016.25 1016.55 1016.39 1016.17 1015.88 1015.67 1015.48 1015.31 1015.22 1015.17 1015.01 1014.95 1014.79 1014.77 1014.67
Wind_Speed
9 7 6 6 6 6 6 6 5 5 6 6 6 6 7 6 6 6 6 5 6 6 5 6 6 4 3 4 3 2 4 4 4 2 2 3 3 6 4 4 3 3 4
9 7 6 6 6 6 6 6 7 7 5 7 6 6 7 6 6 6 5 4 5 6 6 5 6 3 4 3 3 4 4 5 4 6 3 2 2 6 5 5 4 3 3
7 7 7 7 7 8 6 5 6 6 5 4 5 6 5 6 6 6 6 6 5 6 6 6 6 5 3 3 4 3 2 3 3 5 4 2 2 5 4 3 3 3 2
9 9 9 9 9 10 8 7 6 6 7 5 4 5 6 5 5 5 6 5 4 4 3 4 5 5 5 4 2 4 6 6 5 6 3 4 3 3 5 4 4 1 1
11 11 11 10 9 8 7 8 9 8 7 7 7 5 4 4 3 4 4 5 4 3 1 4 4 4 5 4 3 6 7 5 5 4 4 2 3 4 6 4 3 3 2
12 12 10 9 8 8 7 8 9 7 6 6 7 6 6 4 5 3 4 3 3 3 5 3 3 5 4 3 3 10 8 9 6 5 3 5 5 4 3 6 4 4 3
11 11 11 12 11 10 9 8 9 9 7 6 6 5 7 6 8 6 5 2 2 2 4 5 4 2 5 4 5 8 8 7 7 7 8 7 6 8 7 7 6 4 4
12 10 9 8 3 4 9 15 11 6 9 7 7 7 6 6 10 11 9 4 2 2 1 5 6 5 4 5 5 4 4 5 6 4 6 6 6 9 11 9 7 4 2
6 8 9 10 15 12 15 11 15 20 7 6 5 7 7 7 11 11 9 4 3 3 3 3 5 5 7 7 4 5 3 1 2 3 6 8 10 11 8 6 6 6 3
5 6 12 14 11 11 10 16 3 13 15 10 7 8 9 7 11 11 9 4 4 2 1 0 3 5 8 9 6 5 5 5 5 3 2 3 4 5 9 6 5 7 4
3 3 7 8 13 12 16 13 17 12 13 16 10 8 8 8 9 12 11 6 5 4 4 3 2 5 5 5 5 6 6 4 5 4 3 3 3 5 4 4 5 5 5
3 3 4 6 5 7 14 21 15 8 12 13 10 8 6 6 9 10 11 9 8 5 5 3 2 4 6 4 2 2 4 2 3 3 3 3 3 4 5 7 7 6 4
2 3 4 4 6 6 9 10 8 3 6 7 9 6 5 4 4 10 9 9 7 4 3 4 4 6 4 4 5 7 3 0 1 0 3 2 3 3 2 3 4 5 5
2 3 4 4 4 4 3 2 3 4 5 7 6 6 5 5 5 5 5 5 4 3 2 4 2 2 5 2 1 1 2 2 3 3 2 3 1 0 2 3 4 4 4
3 2 3 2 3 4 3 2 3 4 7 10 10 7 8 6 7 8 8 7 6 5 5 3 1 1 2 1 3 3 3 3 3 2 2 2 2 1 2 2 3 2 4
5 3 3 3 2 1 3 2 11 10 9 6 9 8 3 6 14 12 11 9 9 11 3 3 3 3 3 3 3 3 2 2 2 3 2 2 1 1 1 1 0 1 2
8 7 4 3 2 2 3 3 3 5 14 17 16 9 7 13 13 12 13 13 9 7 2 3 3 3 3 2 1 0 1 2 3 2 1 1 1 1 2 2 2 1 1
6 8 5 4 4 3 2 4 4 3 2 4 15 12 15 14 13 12 11 8 3 1 3 3 4 4 3 3 3 3 3 3 3 3 3 3 3 3 2 2 3 2 2
3 4 5 3 3 3 3 5 8 8 6 5 5 7 9 9 8 8 2 1 4 4 3 3 4 4 4 4 4 4 4 4 3 3 2 2 2 2 2 3 3 3 2
3 4 5 4 3 3 4 5 7 8 7 8 4 3 3 2 2 2 3 2 4 5 4 5 4 4 4 4 4 4 4 4 3 3 2 1 1 1 1 1 1 0 1
4 4 6 3 2 3 2 3 6 6 8 7 6 4 6 3 2 3 4 5 6 7 8 8 7 6 6 6 6 5 5 5 4 3 4 4 3 3 3 4 4 3 2
4 4 4 5 3 3 3 1 2 5 6 7 7 5 11 6 5 5 6 6 6 8 7 8 7 6 5 5 5 5 5 5 4 4 4 2 3 3 2 3 4 4 4
4 4 4 2 1 2 1 0 3 3 5 8 9 6 6 7 6 7 8 7 7 8 6 8 8 7 5 5 5 4 5 4 3 4 4 4 2 2 1 1 1 1 2
5 5 3 4 5 4 5 6 4 7 8 9 8 7 8 7 8 10 8 7 8 7 7 6 6 8 6 5 4 4 4 2 3 3 3 3 3 5 3 2 2 4 3
5 5 4 5 5 4 6 7 7 9 8 9 9 7 7 7 7 7 7 6 7 7 6 5 5 8 8 8 7 5 2 2 2 2 1 1 2 5 3 2 2 2 2
4 5 4 4 5 5 4 6 7 7 8 6 6 7 6 5 5 6 6 6 6 6 7 5 6 8 8 6 5 3 2 0 2 3 2 4 5 5 4 5 7 4 5
Wind_Direction
186 181 181 187 187 179 178 183 197 182 182 189 203 198 196 208 204 189 208 208 200 207 218 226 242 245 230 217 203 174 182 158 135 141 146 174 146 140 120 103 115 91 97
180 170 183 188 180 189 200 189 173 179 181 175 182 182 190 202 193 199 210 217 222 227 227 226 233 219 234 223 209 214 192 172 132 154 146 144 140 152 143 133 133 92 102
157 169 180 198 187 195 198 200 180 169 182 190 183 192 196 200 200 212 201 195 210 213 227 205 192 180 193 200 194 205 197 162 146 150 139 136 130 155 139 137 125 113 120
177 181 186 197 198 197 183 188 179 179 175 195 207 203 210 204 211 216 207 200 181 200 194 215 160 154 184 187 186 130 124 130 130 139 139 153 134 150 152 148 134 120 144
183 183 193 195 194 199 178 174 180 185 195 194 194 208 229 204 202 195 218 195 202 227 195 169 167 173 179 191 161 157 145 128 128 123 131 119 157 159 178 146 142 134 198
186 195 187 186 188 196 187 182 182 186 202 199 195 180 171 175 177 155 177 182 168 202 194 219 151 147 150 128 165 163 160 145 144 139 151 178 191 164 144 165 136 157 197
193 203 194 192 185 195 188 197 186 181 172 209 217 177 175 173 174 149 141 193 209 207 202 177 187 198 164 145 99 131 147 148 166 156 165 180 175 188 167 176 183 168 180
200 197 197 190 230 349 26 13 277 189 181 178 197 208 175 186 174 157 153 172 235 289 265 181 186 177 207 173 154 141 158 167 170 178 178 171 179 181 188 188 174 154 117
233 212 173 89 104 93 348 355 10 338 290 185 182 192 189 182 173 164 147 163 217 225 303 165 168 178 199 187 183 163 158 226 34 203 180 179 179 179 170 140 164 167 187
331 231 124 136 146 125 212 280 320 301 295 254 194 197 191 185 173 170 150 139 208 217 205 180 151 174 187 185 180 168 174 204 163 130 80 76 165 179 183 193 167 189 174
213 191 137 173 192 197 185 201 205 188 233 246 190 186 177 186 172 173 161 154 193 185 190 166 201 203 194 196 169 172 194 176 188 171 172 172 168 170 192 205 190 201 193
227 183 178 183 191 208 189 197 215 215 194 197 180 187 172 173 150 172 167 177 180 175 175 193 167 224 213 174 119 133 131 120 160 175 177 206 199 200 201 194 192 195 200
225 196 207 242 230 227 214 207 232 159 235 204 176 170 180 163 140 147 173 169 182 160 162 174 104 148 195 181 184 173 158 182 325 262 221 225 215 230 194 195 212 200 206
274 316 324 330 306 331 309 287 182 174 197 261 168 166 177 166 155 150 166 156 151 125 84 129 135 166 161 256 285 235 240 223 217 214 224 254 255 252 234 186 188 204 220
317 261 236 218 282 183 182 243 248 237 202 173 205 167 160 188 196 171 166 168 162 175 147 138 173 227 285 285 268 248 221 222 224 246 255 241 253 225 148 176 171 154 204
347 340 276 298 309 302 148 90 45 26 360 263 161 157 81 152 143 167 151 137 148 148 145 156 166 167 189 220 216 242 222 218 235 211 218 239 202 204 191 139 95 113 172
356 339 342 12 51 3 139 152 140 39 59 54 49 44 152 134 113 116 112 113 134 130 120 151 166 157 192 173 195 116 118 72 55 59 53 44 320 141 155 191 208 177 237
346 350 8 358 8 35 60 128 105 62 26 66 39 66 55 81 100 112 123 112 104 63 122 148 153 151 154 143 114 88 80 70 67 53 36 27 21 33 18 34 45 49 3
14 339 326 353 9 35 81 111 108 94 84 91 88 39 63 60 86 109 213 155 158 151 146 155 124 116 116 126 112 98 100 99 96 97 103 97 71 62 49 39 30 18 344
332 346 328 331 351 38 41 90 102 102 109 91 83 115 107 158 137 169 168 92 98 115 143 104 84 83 87 97 84 85 88 72 62 47 47 63 62 355 342 344 180 271 292
296 267 247 229 313 8 17 97 96 102 124 136 120 97 95 104 99 85 88 85 101 105 98 95 87 79 77 80 77 60 50 61 58 46 47 36 36 49 5 15 1 347 349
313 327 264 237 231 190 183 142 81 115 125 125 131 131 110 106 99 93 83 80 82 83 86 91 81 76 73 76 76 73 67 55 27 30 40 23 51 72 82 87 61 51 49
333 342 354 352 84 78 34 140 132 124 133 127 131 130 125 119 112 104 98 93 95 89 90 97 99 89 71 67 64 76 83 57 18 15 29 16 3 327 321 85 106 130 65
344 349 19 49 47 57 89 88 75 83 96 109 120 117 112 112 113 106 105 107 104 102 98 95 100 104 97 82 75 76 83 66 38 23 24 7 345 355 344 11 358 345 340
346 360 47 60 59 66 84 84 93 97 91 100 101 94 101 113 109 110 118 111 115 106 101 101 100 102 96 96 90 81 75 309 360 291 21 37 20 3 342 309 318 319 319
357 24 55 70 77 69 72 94 94 90 100 96 95 118 120 110 107 112 113 120 104 93 96 87 93 102 100 88 93 122 169 163 48 23 56 66 59 36 31 22 14 5 340